Погода в Пайале

Швеция     67°12′38″N   23°22′07″E
темп.,
°C
ветер,
м/с
пор.,
м/с
влажн.,
%
обл.,
%
осадки,
мм/ч
давл.,
гПа
погр.,
м
17 мая, пн
пн1723:00+5зсз1199100 0.1 100920
02:00+5з1199100 0.1 101016
05:00+5зюз1310093 0.0 1010123
08:00+6зюз239686 0.0 1011250
11:00+12ююз137953 0.0 1011578
14:00+16ю1463100 0.1 10101418
17:00+15вюв1376100 0.3 1009398
20:00+11всв2393100 0.4 100852
18 мая, вт
вт1823:00+10всв31097100 0.4 1007254
02:00+10в41294100 0.6 1004320
05:00+10юв41191100 0.4 1002590
08:00+11ю499298 2.8 1003601
11:00+12ююз4780100 0.0 1003885
14:00+12ююз477296 0.1 1004914
17:00+14ю4863100 0.0 10031327
20:00+11ююз4982100 0.0 1004693
19 мая, ср
ср1923:00+7ююв389652 0.0 1005170
02:00+5ю37965 0.0 1006157
05:00+6ююз258747 0.0 1006196
08:00+10юз246399 0.0 1006543
11:00+14з1150100 0.0 1006950
14:00+16св1143100 0.0 10061312
17:00+14св1358100 0.0 100592
20:00+11с1374100 0.1 100471
20 мая, чт
чт2023:00+9ссв2593100 1.5 1004187
02:00+8с41193100 4.8 1002854
05:00+7с71489100 5.1 10021066
08:00+6с71391100 8.4 10021047
11:00+5с61292100 3.0 1003841
14:00+5с51294100 3.4 1005801
17:00+5ссз5994100 0.4 1007835
20:00+5с41094100 2.6 1008697
21 мая, пт
пт2123:00+4ссз289496 0.1 1009576
02:00+5с248895 0.1 1010124
05:00+4сз1192100 0.0 101040
08:00+6всв1183100 0.0 1010425
11:00+7вюв1178100 0.0 1010628
14:00+8юв1275100 0.0 1009655
17:00+9в227195 0.0 1008809
20:00+7в2382100 0.0 100785